Regional Weather Roundup
Issued by NWS

Home | Current Version | Previous Version | Graphics & Text | Print | Product List | Glossary On
Versions: 1 2 3 4 5 6 7 8 9 10 11 12 13 14 15 16 17 18 19 20 21 22 23 24 25 26 27 28 29 30 31 32 33 34 35 36 37 38 39 40 41 42 43 44 45 46 47 48 49 50
000
ASUS45 KPSR 301910
RWRAZ

ARIZONA REGIONAL HOURLY WEATHER ROUNDUP
NATIONAL WEATHER SERVICE PHOENIX AZ
1200 PM MST WED JUL 30 2014

NOTE: FAIR INDICATES FEW OR NO CLOUDS BELOW 12,000 FEET WITH NO
SIGNIFICANT WEATHER AND/OR OBSTRUCTIONS TO VISIBILITY.

AZZ001>003-036-302000-
NORTHWEST ARIZONA

CITY           SKY/WX    TMP DP  RH WIND       PRES   REMARKS
BULLHEAD CITY  SUNNY    104  55  20 NW9       29.85F HX 103
KINGMAN        SUNNY     96  48  19 VRB3      30.07F
$$

AZZ004>008-015-016-018-302000-
NORTH CENTRAL ARIZONA

CITY           SKY/WX    TMP DP  RH WIND       PRES   REMARKS
GRAND CANYON   SUNNY     82  45  27 VRB7G17   30.31F
WILLIAMS       MOSUNNY   77  46  33 SW3       30.39S
PRESCOTT       MOSUNNY   88  45  22 S9G20     30.20F
FLAGSTAFF      PTSUNNY   77  44  30 W10G20    30.35S
PAYSON         MOSUNNY   90  48  24 SW10      30.22F
PAGE           SUNNY     90  49  24 VRB3      30.12F
$$

AZZ009>014-017-302000-
NORTHEAST ARIZONA

CITY           SKY/WX    TMP DP  RH WIND       PRES   REMARKS
WINSLOW        PTSUNNY   93  47  20 VRB5G17   30.17F
WINDOW ROCK    PTSUNNY   85  44  23 W7        30.29F
SHOW LOW       PTSUNNY   81  45  28 SW9       30.32S
$$

AZZ023-302000-
GREATER PHOENIX AREA

CITY           SKY/WX    TMP DP  RH WIND       PRES   REMARKS
PHOENIX        MOSUNNY  106  53  17 VRB3      29.87F HX 104
BUCKEYE          N/A    102  54  19 S3        29.89F HX 100
GLENDALE       MOSUNNY  106  55  18 MISG      29.89F HX 105
LUKE AFB       NOT AVBL
DEER VALLEY    SUNNY    102  52  18 VRB5      29.90F
SCOTTSDALE     SUNNY    102  55  20 VRB3      29.92F HX 100
MESA-GATEWAY   MOSUNNY  102  54  19 W8        29.92F HX 100
CHANDLER       MOSUNNY  104  55  20 VRB5      29.90F HX 103
$$

AZZ027-028-302000-
SOUTHWEST MARICOPA COUNTY AND PINAL COUNTY

CITY           SKY/WX    TMP DP  RH WIND       PRES   REMARKS
CASA GRANDE    SUNNY    102  55  21 S3        29.92F HX 101
GILA BEND      PTCLDY   108  50  14 W7G13     29.87F HX 104
$$

AZZ503-504-507>509-302000-
SOUTHEAST ARIZONA

CITY           SKY/WX    TMP DP  RH WIND       PRES   REMARKS
TUCSON         PTSUNNY   98  54  22 CALM      30.03F
DAVIS-MONTHAN  MOSUNNY   95  55  26 SW8       30.02F
RYAN FIELD       N/A     99  54  22 W6        30.01F
NOGALES        MOSUNNY   94  53  25 W7        30.12F
SIERRA VISTA   PTSUNNY   90  54  29 SE6       30.19F
DOUGLAS        CLOUDY    87  61  41 VRB6      30.15F
SAFFORD        MOSUNNY   96  52  22 VRB5      30.02F
$$

AZZ020-021-025-026-031-302000-
SOUTHWEST ARIZONA

CITY           SKY/WX    TMP DP  RH WIND       PRES   REMARKS
YUMA           MOSUNNY  110  45  11 W9        29.82F HX 105
$$

CAZ031-033-041-043-047-048-061-302000-
SOUTHERN CALIFORNIA

CITY           SKY/WX    TMP DP  RH WIND       PRES   REMARKS
DOWNTOWN L.A.  SUNNY     87  61  41 VRB3      29.93F
L.A. AIRPORT   PTSUNNY   78  62  57 W12       29.96S
SAN DIEGO      MOSUNNY   79  63  57 NW6       29.96F
BURBANK        SUNNY     88  58  36 S6        29.96S
ONTARIO        PTSUNNY   92  53  26 SW7       29.95F
RIVERSIDE      SUNNY     93  52  24 CALM      29.95F
PALM SPRINGS   MOSUNNY  107  45  12 VRB3      29.85F HX 102
EL CENTRO NAS  MOSUNNY  110  46  11 VRB6      29.79F HX 105
IMPERIAL       SUNNY    107  48  14 CALM      29.79F HX 103
BLYTHE           N/A    N/A N/A N/A MISG      29.82F
NEEDLES        SUNNY    107  54  17 NE7       29.86F HX 105
$$

NVZ020-UTZ003-302000-
SOUTHERN NEVADA-UTAH

CITY           SKY/WX    TMP DP  RH WIND       PRES   REMARKS
LAS VEGAS      MOSUNNY   98  52  21 S9        29.95F
SALT LAKE CITY PTSUNNY   71  60  68 N9        30.21F
$$

NMZ009-TXZ055-302000-
NEW MEXICO-WEST TEXAS

CITY           SKY/WX    TMP DP  RH WIND       PRES   REMARKS
ALBUQUERQUE    MOSUNNY   81  55  40 SW7       30.21F
EL PASO        MOSUNNY   95  54  25 N9        30.07F
$$


........................KEY........................
SKY/WX - SKY CONDITION/WEATHER
TMP    - TEMPERATURE IN FAHRENHEIT
DP     - DEW POINT IN FAHRENHEIT
RH     - RELATIVE HUMIDITY IN PERCENT
WIND   - DIRECTION AND SPEED IN MILES PER HOUR (MPH)
VRB    - VARIABLE WIND DIRECTION
PRES   - MEAN SEA LEVEL PRESSURE IN INCHES OF MERCURY
         F - FALLING PRESSURE   R - RISING PRESSURE
         S - STEADY PRESSURE
VSB    - VISIBILITY IN MILES
HX     - HEAT INDEX IN FAHRENHEIT
WCI    - WIND CHILL INDEX IN FAHRENHEIT
TC     - TEMPERATURE IN CELSIUS WHICH IS ALSO KNOWN AS
         TEMPERATURE IN CENTIGRADE
AFB    - AIR FORCE BASE
         LUKE AFB IS LUKE AIR FORCE BASE
         DAVIS-MONTHAN IS DAVIS-MONTHAN AIR FORCE BASE
NAS    - NAVAL AIR STATION
         EL CENTRO NAS IS EL CENTRO NAVAL AIR STATION
N/A    - NOT AVAILABLE



USA.gov is the U.S. government's official web portal to all federal, state and local government web resources and services.